Regional Weather Roundup
Issued by NWS

Home | Current Version | Previous Version | Graphics & Text | Print | Product List | Glossary On
Versions: 1 2 3 4 5 6 7 8 9 10 11 12 13 14 15 16 17 18 19 20 21 22 23 24 25 26 27 28 29 30 31 32 33 34 35 36 37 38 39 40 41 42 43 44 45 46 47 48 49 50
000
ASUS43 KMPX 281301
RWRMN
WEATHER ROUNDUP FOR MINNESOTA
NATIONAL WEATHER SERVICE TWIN CITIES/CHANHASSEN MN
800 AM CDT WED JUN 28 2017


NOTE: "FAIR" INDICATES FEW OR NO CLOUDS BELOW 12,000 FEET WITH NO
SIGNIFICANT WEATHER AND/OR OBSTRUCTIONS TO VISIBILITY. N/A MEANS
CURRENT SKY AND/OR WEATHER CONDITIONS ARE NOT AVAILABLE.

MNZ060>063-068>070-281400-
   Twin Cities Metro

CITY           SKY/WX    TMP DP  RH WIND       PRES   REMARKS
TWIN CITIES    RAIN      65  62  90 S13G21    29.63F
ST PAUL        LGT RAIN  63  63 100 SE14      29.63F
CRYSTAL        LGT RAIN  64  60  87 S13       29.61R
BLAINE         CLOUDY    64  64 100 S14       29.62R
LAKEVILLE      LGT RAIN  64  64 100 S10G18    29.63F
EDEN PRAIRIE   LGT RAIN  66  63  90 S14       29.61F FOG
SOUTH ST PAUL  DRIZZLE   62  62  99 SE8       29.63F
$$
MNZ001>005-007-008-013>017-022>024-027-028-281400-
   Northwest Minnesota

CITY           SKY/WX    TMP DP  RH WIND       PRES   REMARKS
HALLOCK        LGT RAIN  61  59  94 CALM      29.57R
ROSEAU         RAIN      61  55  82 E3        29.61R
WARROAD        DRIZZLE   61  55  82 CALM      29.61R
CROOKSTON      LGT RAIN  59  59 100 E9        29.52R
FOSSTON        LGT RAIN  57  57 100 E3        29.56S
DETROIT LAKES  CLOUDY    61  59  94 SE14      29.50F
MOORHEAD       CLOUDY    68  61  77 S16       29.46F
PARK RAPIDS    CLOUDY    60  56  86 SE13      29.55F
MAHNOMEN       CLOUDY    61  58  91 SE6G17    29.50F
$$
MNZ006-009>011-018-025>026-281400-
   North Central Minnesota

CITY           SKY/WX    TMP DP  RH WIND       PRES   REMARKS
BAUDETTE       CLOUDY    59  50  72 S8        29.60S
FLAG ISLAND    CLOUDY    63  50  63 SE10      29.60R
INTL FALLS     CLOUDY    57  48  72 E7        29.64F
WASKISH        CLOUDY    55  54  94 E7          N/A
BIG FORK       CLOUDY    55  52  88 E7        29.63F
LONGVILLE      DRIZZLE   57  55  94 SE9       29.57F
GRAND RAPIDS   CLOUDY    56  52  86 VRB3      29.65F
CRANE LAKE     CLOUDY    57  54  88 CALM      29.70S
ORR            CLOUDY    57  46  67 CALM      29.66S
COOK           CLOUDY    57  50  77 CALM      29.68F
WALKER         PTSUNNY   58  55  88 SE7       29.57F
$$
MNZ012-019>021-037-281400-
   Northeast Minnesota

CITY           SKY/WX    TMP DP  RH WIND       PRES   REMARKS
DULUTH         CLOUDY    57  49  74 SE10      29.69S
ELY            CLOUDY    59  48  67 SE5       29.71F
HIBBING        CLOUDY    55  51  86 SE6       29.66F
EVELETH        CLOUDY    58  49  73 NE3       29.69F
DULUTH HARBOR  CLOUDY    54  50  87 NE15      29.70S
TWO HARBORS    CLOUDY    59  52  77 E5        29.70S
SILVER BAY     CLOUDY    55  52  88 NE3       29.71F
GRAND MARAIS     N/A     53  46  77 E7        29.75F
G MARAIS ARPRT CLOUDY    57  46  67 E5        29.78F
$$
MNZ029>031-032-039>041-046>048-054>057-064-281400-
   West Central Minnesota

CITY           SKY/WX    TMP DP  RH WIND       PRES   REMARKS
FERGUS FALLS   DRIZZLE   63  63 100 SE13      29.48S
WHEATON        CLOUDY    64  61  88 SE14      29.50R
MORRIS         PTSUNNY   64  63  94 SE17G23   29.53R
ALEXANDRIA     CLOUDY    62  61  96 SE12      29.57F
ELBOW LAKE     LGT RAIN  62  61  97 SE16G26   29.50F
WADENA         RAIN      61  59  94 SE10      29.54S
GLENWOOD       CLOUDY    63  61  94 SE14G21   29.58F
APPLETON       CLOUDY    64  61  88 SE12      29.52R
BENSON         CLOUDY    64  63  94 SE13G18   29.56S
ORTONVILLE     LGT RAIN  66  63  88 SE9       29.51R
MADISON        LGT RAIN  72  63  73 S9G17     29.51S
WILLMAR        DRIZZLE   64  64 100 SE12      29.58S
$$
MNZ033>034-036-042>043-049>051-058-059-281400-
   Central Minnesota

CITY           SKY/WX    TMP DP  RH WIND       PRES   REMARKS
ST CLOUD       LGT RAIN  62  62 100 SE12      29.59F
SAUK CENTRE    DRIZZLE   61  60  97 SE9       29.60S
PAYNESVILLE    DRIZZLE   62  62 100 SE7       29.61R
AITKIN         CLOUDY    57  54  88 E6        29.61F
PINE RIVER     LGT RAIN  57  57 100 CALM      29.60F
BRAINERD       LGT RAIN  59  57  93 SE7       29.60F
STAPLES        LGT RAIN  59  57  94 SE10      29.55F
LITTLE FALLS   HVY RAIN  61  59  94 SE10      29.62R VSB 1
LITCHFIELD     DRIZZLE   64  64 100 SE9       29.60R
BUFFALO        LGT RAIN  62  60  91 SE9       29.60F
MAPLE LAKE     LGT RAIN  64  63  97 SE5       29.60S
HUTCHINSON     CLOUDY    65  64  97 S7        29.61R
$$
MNZ037-044-045-052-053-281400-
   East Central Minnesota

CITY           SKY/WX    TMP DP  RH WIND       PRES   REMARKS
PRINCETON      LGT RAIN  66  64  94 S9        29.60F
MORA           LGT RAIN  57  52  82 E5        29.64F
CAMBRIDGE      HVY RAIN  66  61  82 S7        29.61R
RUSH CITY      RAIN      59  55  88 CALM      29.64R
MOOSE LAKE     CLOUDY    63  52  67 CALM      29.64S
CLOQUET        CLOUDY    57  50  77 E5        29.68S
MCGREGOR       CLOUDY    61  52  72 E6        29.65S
$$
MNZ071>073-080-081-089-090-097-098-281400-
   Southwest Minnesota

CITY           SKY/WX    TMP DP  RH WIND       PRES   REMARKS
MONTEVIDEO     CLOUDY    64  64 100 S8        29.54F
GRANITE FALLS  LGT RAIN  66  64  93 E8        29.56F
CANBY          PTSUNNY   69  62  76 CALM      29.54R
MARSHALL       CLOUDY    68  63  84 SW16G24   29.54S
REDWOOD FALLS  CLOUDY    66  62  87 SW8       29.57S
OLIVIA         LGT RAIN  63  61  94 S7        29.58S
PIPESTONE      PTSUNNY   66  63  88 SW17G23   29.60R
WINDOM         CLOUDY    68  63  83 S18G28    29.60F
WORTHINGTON    PTSUNNY   67  62  84 S22G31    29.62F
JACKSON        CLOUDY    66  63  88 S18       29.64F
TRACY          LGT RAIN  67  64  88 SW23G29   29.56F
SLAYTON        PTSUNNY   65  62  88 SW20G26   29.60S
$$
MNZ065>067-074>077-082>085-091>093-281400-
   South Central Minnesota

CITY           SKY/WX    TMP DP  RH WIND       PRES   REMARKS
MANKATO        LGT RAIN  66  63  90 S6        29.65R
NEW ULM        CLOUDY    64  64 100 S10       29.60S
ST JAMES       CLOUDY    68  64  88 S9G17     29.62F
FAIRMONT       CLOUDY    67  64  90 SW16      29.64S
GLENCOE        CLOUDY    64  65 100 SE10      29.60R
FARIBAULT      DRIZZLE   64  63  94 S7        29.67S
OWATONNA       DRIZZLE   66  63  88 SE10      29.68R
WASECA         DRIZZLE   63  61  94 SE8       29.67R
ALBERT LEA     LGT RAIN  64  63  94 S13       29.67S
$$
MNZ078>079-086>088-094>096-281400-
   Southeast Minnesota

CITY           SKY/WX    TMP DP  RH WIND       PRES   REMARKS
ROCHESTER      LGT RAIN  63  62  97 SE16G24   29.72R
RED WING       LGT RAIN  64  61  88 SE6       29.66F
STANTON        LGT RAIN  66  62  87 S12       29.66R
DODGE CENTER   LGT RAIN  63  61  94 SE17G23   29.70R
WINONA         CLOUDY    63  61  94 SE9       29.71F
AUSTIN         LGT RAIN  63  59  88 S10G21    29.70R
PRESTON        CLOUDY    63  60  90 SE16G28   29.73F
$$
ABBREVIATIONS USED IN REMARKS
   TC - TEMPERATURES IN CELSIUS
  WCI - WIND CHILL INDEX
   HX - HEAT INDEX
  VSB - VISIBILITY
$$




USA.gov is the U.S. government's official web portal to all federal, state and local government web resources and services.